Location: Boisthuaud
(47.3392°N, 1.8685°W)
Time: 19:31:57
(UTC+00:00)

Daily predictions for brighter satellites

Satellite Brightness Start Highest point End
(mag) Time Altitude Azimuth Time Altitude Azimuth Time Altitude Azimuth
NOSS 0 Rocket 4.1 18:25:11 10° SSW 18:31:26 88° WNW 18:37:44 10° NNE
Radarsat Rocket 4.2 18:27:47 10° SSE 18:34:20 87° WSW 18:40:19 10° NNW
Resurs 01 Rocket 3.2 18:32:13 10° ESE 18:35:12 18° ENE 18:38:11 10° NNE
Cosmos 1707 2.4 18:35:45 10° N 18:39:19 72° E 18:42:50 10° SSE
Meteor 1-31 Rocket 4.1 18:39:11 10° S 18:42:38 42° W 18:46:06 10° NNW
USA 306 3.9 18:42:26 10° NW 18:45:04 24° N 18:48:03 10° ENE
ISS -2.8 18:42:08 10° W 18:45:21 42° N 18:48:35 10° ENE
Meteor PRIRODA 4.2 18:44:05 10° SE 18:46:59 30° ENE 18:49:55 10° N
Cosmos 2208 Rocket 4.1 18:45:00 10° S 18:50:09 57° ESE 18:55:26 10° NNE
GENESIS II 4.1 18:48:31 10° SW 18:52:01 75° NW 18:55:32 10° NE
Cosmos 1733 2.9 18:50:12 10° S 18:53:34 60° E 18:56:56 10° NNE
SL-16 R/B 2.8 18:49:08 10° SSE 18:54:08 33° ESE 18:59:08 10° NE
SAR-Lupe-2 3.7 18:51:03 10° SSE 18:54:31 54° ENE 18:58:02 10° N
ACS3 Solar Sail 2.9 18:49:25 10° ESE 18:54:34 26° ENE 18:59:42 10° N
Cosmos 1315 Rocket 2.9 18:53:21 10° N 18:57:15 52° ENE 19:01:07 10° SSE
Cosmos 1805 3.9 18:54:10 10° SSE 18:57:19 28° E 19:00:31 10° NNE
Cosmos 1842 4.1 18:57:01 10° NNW 19:00:31 49° W 19:04:01 10° S
Cosmos 1536 2.6 18:57:02 10° S 19:00:51 86° E 19:04:43 10° N
Resurs 1-3 3.5 18:58:26 10° SSE 19:02:44 71° ENE 19:07:05 10° N
SPOT 1/Viking Rocket 3.5 19:01:13 10° SSE 19:06:21 71° ENE 19:11:29 10° N
ATLAS CENTAUR R/B 2.8 19:03:30 10° WSW 19:06:49 34° NW 19:10:18 10° NNE
Cosmos 2278 Rocket 3.7 19:01:45 10° NW 19:06:58 38° WSW 19:12:08 10° S
Meteor 1-11 Rocket 3.6 19:02:01 10° S 19:07:32 68° E 19:13:02 10° NNE
Cosmos 1515 Rocket 3.7 19:04:19 10° NNW 19:08:41 79° W 19:13:04 10° S
SL-14 R/B 3.8 19:06:03 10° N 19:09:35 35° ENE 19:12:47 12° SE
Meteor 2-9 Rocket 4.1 19:05:41 10° S 19:10:59 63° E 19:16:28 10° NNE
ADEOS 3.5 19:08:24 10° SSE 19:13:37 82° ENE 19:18:51 10° NNW
USA 59 Rocket 3.2 19:13:39 10° W 19:16:08 14° WSW 19:19:00 10° SSW
CSL-04 Rocket 4.1 19:11:58 11° SE 19:16:35 39° ENE 19:21:27 10° N
CZ-4B DEB 4.2 19:12:40 10° SSE 19:18:09 75° ENE 19:23:38 10° NNW
CZ-4B R/B 3.5 19:13:19 10° SE 19:18:24 44° ENE 19:23:26 10° N
Cosmos 1500 Rocket 3.4 19:18:25 10° S 19:22:43 66° E 19:27:01 10° NNE
YAOGAN 1 4.2 19:20:02 10° SSW 19:24:00 37° W 19:27:59 10° NNW
USA 186 2.1 19:24:41 22° SE 19:26:22 45° ENE 19:29:29 10° N
CZ-4B R/B 3.6 19:24:04 10° S 19:28:50 74° WSW 19:33:45 10° NNW
SJ-6B 2.8 19:25:45 10° S 19:29:19 69° WSW 19:32:55 10° NNW
ARGOS Delta rocket 3.8 19:24:37 10° SSE 19:29:29 90° NE 19:34:07 10° N
Cosmos 773 Rocket 3.9 19:25:31 10° SSW 19:30:46 72° ESE 19:36:04 10° NNE
Nadezhda 4 Rocket 4.2 19:25:41 10° N 19:32:00 80° W 19:38:19 10° S
Cosmos 2195 Rocket 4.4 19:26:12 10° N 19:32:20 69° E 19:38:28 10° SSE
Cosmos 2237 Rocket 3.4 19:27:08 10° SW 19:32:30 45° NW 19:37:55 10° NNE
Cosmos 1743 Rocket 3.5 19:28:26 10° S 19:32:42 62° E 19:37:01 10° NNE
SWARM A 4.3 19:29:22 10° S 19:32:51 90° WSW 19:36:23 10° N
Cosmos 1408 Rocket 3.8 19:30:20 10° SSW 19:34:43 72° W 19:39:10 10° N
NOSS 3-3 (C) 4.2 19:30:28 10° SW 19:35:53 67° NW 19:42:20 10° NE
SL-08 R/B 3.6 19:32:21 10° N 19:37:18 75° WNW 19:42:10 10° SSW
Cosmos 2026 Rocket 3.9 19:31:16 10° N 19:37:24 64° ENE 19:43:26 10° SSE
Cosmos 2150 Rocket 4.4 19:32:38 10° NNW 19:37:44 64° WSW 19:42:48 10° S
Cosmos 1943 Rocket 3.9 19:32:58 10° NW 19:37:48 32° WSW 19:42:37 10° SSW
Helios 1A 2.8 19:34:18 10° NNE 19:38:23 89° WNW 19:42:27 10° SSW
Cosmos 724 4.2 19:32:47 10° SSW 19:38:34 80° ESE 19:44:23 10° NE
USA 267 4.3 19:32:31 10° NE 19:38:36 42° NNW 19:44:41 10° W
SeaSat 1 3.5 19:35:49 10° NNE 19:40:33 48° NW 19:45:15 10° SW
Tiangong -0.6 19:38:45 10° SW 19:41:06 23° S 19:41:06 23° S
Sich 1 3.0 19:37:15 10° S 19:41:33 86° W 19:45:55 10° N
Okean O Rocket 2.1 19:41:03 29° ESE 19:42:40 41° ENE 19:46:50 10° N
CARTOSAT-1 3.4 19:40:01 16° SSE 19:43:19 76° ENE 19:47:35 10° N
GEOS 3 Rocket 4.0 19:41:58 26° ESE 19:44:37 50° NE 19:49:36 10° NNW
USA 32 3.9 19:39:41 10° N 19:44:58 79° E 19:50:13 10° S
NOSS 3-3 (A) 4.5 19:40:39 10° WSW 19:46:02 56° NW 19:52:26 10° NE
Cosmos 1092 Rocket 4.0 19:41:41 10° N 19:48:03 74° E 19:54:21 10° SSE
CZ-4 R/B 1.8 19:46:17 10° S 19:50:06 60° W 19:54:02 10° NNW
BREEZE-M R/B 4.2 19:46:00 10° WNW 19:50:39 88° SSW 20:00:20 23° ESE
Cosmos 1656 Rocket 3.6 19:46:08 10° NNW 19:51:49 88° WSW 19:55:32 22° SSE
CSL-04 Debris 4.1 19:48:56 15° SSE 19:53:29 81° ENE 19:58:58 10° NNW
Cosmos 2297 3.6 19:48:10 10° NNW 19:53:52 86° ENE 19:57:17 25° SSE
SPOT 5 3.5 19:54:01 31° ENE 19:54:17 31° ENE 19:58:07 10° N
Cosmos 1607 4.2 19:48:57 10° SW 19:55:25 77° NW 20:01:53 10° NE
ARIANE 6 FM1 Upper Stage 2.8 19:53:04 10° SSW 19:57:12 51° SE 19:58:11 41° E
PAYLOAD B 4.5 19:52:00 10° S 19:57:35 70° WSW 20:03:12 10° NNW
Aureole 3 Rocket 3.5 19:52:02 10° SSW 19:57:41 74° W 20:01:47 10° N
MOS 1-B 4.3 19:54:21 21° SSE 19:58:17 74° ENE 20:04:04 10° NNW
Cosmos 2369 Rocket 2.1 19:52:51 10° NNW 19:58:37 77° ENE 20:01:28 31° SE
CZ-4B R/B 3.7 19:55:52 10° S 19:59:47 51° W 20:03:53 10° NNW
Okean 2 4.4 19:56:13 10° N 19:59:09 29° NE 19:59:09 29° NE
BREEZE-M DEB (TANK) 4.4 19:36:10 10° W 20:00:08 79° N 20:03:29 29° E
Terra 3.3 20:00:58 21° ENE 20:00:58 21° ENE 20:04:10 10° NNE
CRYOSAT 2 4.5 19:59:29 10° NNE 20:04:15 50° E 20:05:19 42° SE
Cosmos 1634 Rocket 3.9 19:59:19 10° S 20:05:36 74° E 20:11:56 10° NNE
Cosmos 1441 Rocket 2.9 20:03:45 25° SSW 20:05:42 87° W 20:09:16 10° N
Cosmos 1805 Rocket 4.3 20:01:37 10° SSW 20:05:50 52° WNW 20:10:07 10° N
Okean 1-7 4.0 20:04:18 10° N 20:07:26 30° NE 20:07:26 30° NE
Cosmos 2228 Rocket 3.0 20:04:09 10° N 20:08:45 75° E 20:10:04 45° SSE
Cosmos 1633 Rocket 3.4 20:09:44 45° ENE 20:09:44 45° ENE 20:13:25 10° NNE
Cosmos 1975 3.0 20:05:45 10° SSW 20:09:37 69° W 20:13:31 10° N
Cosmos 2084 Rocket 3.3 20:06:40 10° SW 20:10:59 88° SE 20:13:11 28° NE
Resurs 01 Rocket 2.2 20:07:53 17° S 20:11:12 57° W 20:15:34 10° NNW
NOSS 3-4 (A) 3.9 20:04:33 10° NW 20:11:26 77° SW 20:15:59 28° SSE
NOSS 3-4 (C) 3.9 20:04:39 10° NW 20:11:31 78° SW 20:16:03 28° SSE
MetOp-B 4.4 20:11:40 42° E 20:12:38 47° ENE 20:17:45 10° N
Okean-O 2.7 20:17:08 54° ENE 20:17:08 54° ENE 20:21:25 10° N
Cosmos 192 4.2 20:12:13 10° NNW 20:17:08 78° ENE 20:18:09 56° SE
USA 306 3.2 20:14:45 10° NW 20:17:50 44° N 20:17:50 44° N
MOS 1 Rocket 3.8 20:20:11 48° E 20:20:41 49° ENE 20:25:52 10° N
Cosmos 1862 Rocket 3.4 20:16:38 10° N 20:21:07 82° E 20:21:39 68° SSE
ISS -2.7 20:19:19 10° WNW 20:22:09 40° NNW 20:22:09 40° NNW
Cosmos 1707 Rocket 3.5 20:19:47 10° N 20:24:13 81° W 20:25:01 59° S
ERS-1 Rocket 3.5 20:26:14 41° ENE 20:26:14 41° ENE 20:30:40 10° N
IRS-1A Rocket 4.5 20:27:25 49° E 20:28:00 50° ENE 20:33:25 10° N
Cosmos 1666 Rocket 3.4 20:28:15 71° SSW 20:28:42 88° W 20:33:04 10° N
Cosmos 2142 Rocket 4.3 20:32:13 44° SSE 20:34:10 69° E 20:40:18 10° NNE
Cosmos 2279 Rocket 3.8 20:33:08 24° S 20:37:05 85° E 20:43:19 10° N
ACS3 Solar Sail 2.2 20:33:50 23° S 20:38:04 67° W 20:44:29 10° NNW
SL-16 R/B 3.3 20:32:40 10° SW 20:38:05 45° NW 20:43:31 10° NNE
Okean 3 3.9 20:40:36 10° NNW 20:44:39 57° W 20:44:39 57° W
Cosmos 2180 Rocket 4.4 20:48:16 56° SSE 20:49:41 78° E 20:56:03 10° N
Cosmos 1943 3.0 20:45:00 10° SSW 20:50:37 85° ESE 20:56:19 10° NNE
Ariane Rocket 3.9 20:57:45 37° NNE 20:57:45 37° NNE 21:01:17 10° N
ATLAS 2AS CENTAUR R/B 3.9 20:56:11 10° NNW 21:02:08 29° NNE 21:03:49 26° NE
IRS-1C Rocket 4.2 21:04:12 71° N 21:04:12 71° N 21:08:54 10° NNW
Cosmos 1655 Rocket 4.3 20:57:46 10° N 21:03:30 55° NE 21:03:30 55° NE
Okean O Rocket 3.6 21:18:23 22° WSW 21:19:04 23° W 21:22:35 10° NW
USA 267 4.2 21:18:34 31° NE 21:20:46 40° N 21:26:48 10° WNW
Cosmos 2266 Rocket 4.1 21:20:57 10° NNW 21:27:15 70° W 21:27:22 70° WSW
SPOT 5 4.5 21:33:09 27° WNW 21:33:09 27° WNW 21:36:08 10° NW
Terra 3.3 21:39:41 34° NW 21:39:41 34° NW 21:42:31 10° NNW
Cosmos 2369 Rocket 4.3 21:38:11 10° WNW 21:41:56 18° W 21:43:16 17° WSW
Cosmos 1980 Rocket 4.2 21:58:03 10° N 22:00:49 19° NNE 22:00:49 19° NNE
Cosmos 2344 3.9 22:06:45 10° NW 22:14:58 79° NE 22:15:07 78° ENE
ACS3 Solar Sail 4.4 22:21:20 10° W 22:23:18 11° W 22:25:14 10° WNW
ATLAS 2AS CENTAUR R/B 3.8 22:47:08 10° NW 22:51:13 39° NW 22:51:13 39° NW
USA 267 4.4 23:05:55 38° NW 23:05:55 38° NW 23:09:45 10° NW
CZ-3B R/B 4.2 23:20:04 10° WNW 23:36:26 60° NNW 23:36:26 60° NNW
